Voltar ao catálogo

STARLINK-34292

AtivoComunicaçõesVLEO
NORAD 64390·PAYLOAD·🇺🇸 United States

Lançado Jun 13, 2025 de Cape Canaveral Space Force Station

Loading…

Próximas Passagens (próximas 24 horas)

TLE

AtualizadoSource: CelesTrak SupGP

Época: Sep 15, 2026, 02:26 UTC

1 64390C 25127W   26258.10187500 -.00040261  00000+0 -14584-2 0  2580
2 64390  42.9993 190.2579 0001145 274.1468  66.9539 15.27594796    10

Acompanhe STARLINK-34292 em tempo real com AllMySat

Download on the App Store